Weather History for Kaneohe MCBH, HI

Change the Weather History Date:

Monday, June 24, 2013

  Actual Average Record
Temperature  
Mean Temperature 78 °F -  
Max Temperature 84 °F 79 °F 84 °F (2013)
Min Temperature 73 °F 72 °F 72 °F (2012)
Cooling Degree Days 14    
Growing Degree Days 28 (Base 50)    
Moisture  
Dew Point 68 °F    
Average Humidity 74    
Maximum Humidity 86    
Minimum Humidity 56    
Precipitation  
Precipitation 0.03 in - - ()
Sea Level Pressure  
Sea Level Pressure 30.10 in    
Wind  
Wind Speed 9 mph (ENE)    
Max Wind Speed 17 mph    
Max Gust Speed 25 mph    
Visibility 9 miles    
Events Rain    
Averages and records for this station are not official NWS values.
T = Trace of Precipitation, MM = Missing Value Source: NWS Daily Summary

Daily Weather History Graph

Daily Weather History Graph

Search for Another Location

Airport:

Trip Planner

Search our weather history database for the weather conditions in past years. The results will help you decide how hot, cold, wet, or windy it might be!

Date:

Astronomy

Jun. 24, 2013 Rise Set
Actual Time 5:50 AM HST 7:16 PM HST
Civil Twilight 5:25 AM HST 7:41 PM HST
Nautical Twilight 4:55 AM HST 8:11 PM HST
Astronomical Twilight 4:25 AM HST 8:42 PM HST
Moon 8:45 PM HST (6/24) 7:18 AM HST (6/24)
Length of Visible Light 14h 16m
Length of Day
13h 26m
Full, 97% of the Moon is Illuminated
Jun 24
Full
Jun 29
Last Quarter
Jul 7
New
Jul 15
First Quarter
Jul 22
Full

Hourly Weather History & Observations

Time (HST) Temp. Heat Index Dew Point Humidity Pressure Visibility Wind Dir Wind Speed Gust Speed Precip Events Conditions
12:57 AM 73.4 °F - 69.1 °F 86% 30.10 in 10.0 mi East 8.1 mph 17.3 mph 0.00 in   Mostly Cloudy
1:57 AM 73.4 °F - 68.0 °F 83% 30.09 in 10.0 mi East 9.2 mph - N/A   Clear
2:57 AM 73.4 °F - 68.0 °F 83% 30.08 in 10.0 mi ENE 6.9 mph - N/A   Mostly Cloudy
3:57 AM 73.4 °F - 69.1 °F 86% 30.08 in 10.0 mi East 6.9 mph - N/A   Scattered Clouds
4:57 AM 73.4 °F - 66.9 °F 80% 30.09 in 10.0 mi ENE 17.3 mph 25.3 mph 0.00 in Rain Light Rain
5:57 AM 73.4 °F - 69.1 °F 86% 30.10 in 10.0 mi ENE 9.2 mph 19.6 mph 0.00 in   Mostly Cloudy
6:15 AM - - - N/A% - - North - - N/A   Unknown
6:57 AM 75.2 °F - 66.9 °F 75% 30.10 in 10.0 mi ENE 9.2 mph - 0.00 in   Mostly Cloudy
7:57 AM 77.0 °F - 66.9 °F 71% 30.11 in 10.0 mi ENE 9.2 mph 18.4 mph N/A   Mostly Cloudy
8:57 AM 77.0 °F - 66.9 °F 71% 30.12 in 10.0 mi ENE 6.9 mph 17.3 mph N/A   Mostly Cloudy
9:57 AM 77.0 °F - 68.0 °F 74% 30.12 in 10.0 mi NE 11.5 mph - N/A   Mostly Cloudy
10:57 AM 80.6 °F 83.2 °F 68.0 °F 65% 30.12 in 10.0 mi NNE 10.4 mph - N/A   Mostly Cloudy
11:57 AM 80.6 °F 83.6 °F 69.1 °F 68% 30.12 in 10.0 mi ENE 11.5 mph 17.3 mph N/A   Mostly Cloudy
12:57 PM 82.4 °F 84.4 °F 66.0 °F 57% 30.10 in 10.0 mi East 10.4 mph - N/A   Mostly Cloudy
1:57 PM 82.4 °F 85.8 °F 69.1 °F 64% 30.09 in 10.0 mi ENE 9.2 mph - 0.00 in   Mostly Cloudy
2:57 PM 84.2 °F 86.8 °F 66.9 °F 56% 30.08 in 4.0 mi NE 10.4 mph - N/A Rain Rain
3:49 PM 82.4 °F 84.6 °F 66.2 °F 58% 30.09 in 5.0 mi East 3.5 mph - 0.03 in   Haze
3:57 PM 82.4 °F 84.8 °F 66.9 °F 59% 30.08 in 5.0 mi ENE 8.1 mph - 0.03 in Rain Light Rain
4:11 PM 78.8 °F - 69.8 °F 74% 30.08 in 6.0 mi NE 8.1 mph - 0.00 in   Haze
4:57 PM 78.8 °F - 70.0 °F 74% 30.07 in 10.0 mi NE 11.5 mph 18.4 mph 0.00 in   Mostly Cloudy
5:57 PM 78.8 °F - 70.0 °F 74% 30.07 in 10.0 mi NE 12.7 mph - N/A   Mostly Cloudy
6:57 PM 78.8 °F - 69.1 °F 72% 30.08 in 10.0 mi ENE 11.5 mph 18.4 mph N/A   Mostly Cloudy
7:57 PM 77.0 °F - 68.0 °F 74% 30.09 in 10.0 mi NE 12.7 mph 19.6 mph N/A   Mostly Cloudy
8:57 PM 75.2 °F - 69.1 °F 81% 30.09 in 10.0 mi ENE 9.2 mph 17.3 mph N/A   Overcast
9:14 PM 75.2 °F - 69.8 °F 83% 30.11 in 6.2 mi ENE 10.4 mph - 0.00 in Rain Light Rain
9:46 PM 75.2 °F - 69.8 °F 83% 30.12 in 6.2 mi NE 12.7 mph 20.7 mph 0.00 in   Mostly Cloudy
9:57 PM 75.2 °F - 70.0 °F 84% 30.11 in 10.0 mi ENE 9.2 mph - 0.00 in Rain Light Rain
10:57 PM 75.2 °F - 69.1 °F 81% 30.11 in 10.0 mi ENE 8.1 mph - 0.00 in   Overcast
11:57 PM 75.2 °F - 68.0 °F 78% 30.09 in 10.0 mi ENE 8.1 mph 17.3 mph N/A   Mostly Cloudy